Regional Weather Roundup
Issued by NWS

Home | Current Version | Previous Version | Graphics & Text | Print | Product List | Glossary On
Versions: 1 2 3 4 5 6 7 8 9 10 11 12 13 14 15 16 17 18 19 20 21 22 23 24 25 26 27 28 29 30 31 32 33 34 35 36 37 38 39 40 41 42 43 44 45 46 47 48 49 50
000
ASUS45 KBOU 280107
RWRCO

WEATHER ROUNDUP FOR COLORADO
NATIONAL WEATHER SERVICE DENVER/BOULDER CO
600 PM MST TUE JAN 27 2015

NOTE: "FAIR" INDICATES FEW OR NO CLOUDS BELOW 12000 FEET WITH NO
SIGNIFICANT WEATHER AND/OR OBSTRUCTIONS TO VISIBILITY.

COZ001>005-013-030-031-280200-
...NORTHWEST COLORADO...

CITY           SKY/WX    TMP DP  RH WIND       PRES   REMARKS
CRAIG          CLOUDY    36  30  79 CALM      30.22R
HAYDEN         CLOUDY    37  25  60 CALM      30.21S
MEEKER         MOCLDY    42  28  57 CALM      30.22R
MOUNT WERNER   NOT AVBL
STEAMBOAT SPGS CLOUDY    40  23  52 CALM      30.22S
WALDEN         PTCLDY    37  23  56 S5        30.21F
$$

COZ006>008-011-280200-
...WEST CENTRAL VALLEYS...

CITY           SKY/WX    TMP DP  RH WIND       PRES   REMARKS
GRAND JUNCTION PTCLDY    42  28  57 NW5       30.24R
MONTROSE       PTCLDY    44  25  47 NW3       30.27R
EAGLE          CLEAR     41  27  56 CALM      30.24R
RIFLE          MOCLDY    44  27  51 SE3       30.23R
DELTA          PTCLDY    51  31  47 W3        30.23R
NUCLA          PTCLDY    50  32  50 CALM      30.29S
$$

COZ017>023-064>068-280200-
...SOUTHWEST COLORADO...

CITY           SKY/WX    TMP DP  RH WIND       PRES   REMARKS
DURANGO        CLEAR     38  28  67 E3        30.28S
CORTEZ         MOCLDY    42  30  62 SE3       30.26S
PAGOSA SPRINGS CLOUDY    42  28  58 CALM      30.31S
TELLURIDE      NOT AVBL
WOLF CREEK PAS NOT AVBL
$$

COZ009-010-012-014-032>034-037-058>063-280200-
...CENTRAL COLORADO...

CITY           SKY/WX    TMP DP  RH WIND       PRES   REMARKS
ASPEN          CLOUDY    38  24  57 CALM      30.25R
BUENA VISTA    PTCLDY    40  21  47 CALM      30.22R
COPPER MTN     PTCLDY    34  10  37 W15G21    30.38S WCI  24
BERTHOUD PASS  FAIR      28  23  80 N5        30.40F WCI  23
COTTONWOOD PAS PTCLDY    45   5  19 W6        30.29S
GUNNISON       MOCLDY    19  12  73 N3        30.32S
KREMMLING      PTCLDY    23  18  80 CALM      30.26F
LEADVILLE      PTCLDY    36  13  38 NE6       30.28R
MONARCH PASS   CLEAR     32  12  43 W21       30.48S WCI  20
SALIDA         PTCLDY    48  17  29 SW12G17   30.27S
SUNLIGHT       MOCLDY    32  23  69 CALM      30.36S
WILKERSON PASS PTCLDY    36  14  41 SW7       30.36S
$$

COZ069>075-280200-
...SAN LUIS VALLEY/SANGRE DE CRISTO MOUNTAINS...

CITY           SKY/WX    TMP DP  RH WIND       PRES   REMARKS
ALAMOSA        CLEAR     39  23  52 CALM      30.24S
LA VETA PASS   NOT AVBL
SAGUACHE       PTCLDY    30  25  80 N8        30.28S WCI  23
$$

COZ035-036-038>040-280200-
...NORTHERN COLORADO FRONT RANGE...

CITY           SKY/WX    TMP DP  RH WIND       PRES   REMARKS
DENVER INTL AP PTCLDY    55  33  43 E6        30.01S
DMNS CITY PARK   N/A     58  27  29 NW3       30.01S
AURORA         PTCLDY    52  36  54 E9        30.02F
FRONT RANGE AP NOT AVBL
ERIE MUNI ARPT CLEAR     46  26  45 CALM      30.01F
BOULDER MUN AP CLEAR     57  23  26 SW8       30.02F
CENTENNIAL     PTCLDY    53  34  48 NW7       30.03S
BROOMFIELD     PTCLDY    57  25  28 NW12      30.04S
FORT COLLINS   CLEAR     52  23  32 W5        30.02S
LONGMONT       CLEAR     52  24  33 W9        30.03F
$$

COZ041-046-047-076>085-087-088-280200-
...PIKES PEAK/PALMER DIVIDE AND SOUTHERN FOOTHILLS...

CITY           SKY/WX    TMP DP  RH WIND       PRES   REMARKS
COLO. SPRINGS  PTCLDY    51  25  36 SE14      30.07F
A. F. ACADEMY  CLEAR     49  24  36 N6        30.08F
ELLICOTT       CLEAR    N/A N/A N/A S9        30.07S
FALCON         CLEAR     48  22  35 CALM      30.12S
FORT CARSON    CLEAR     55  22  27 SW7       30.04S
LIMON          CLEAR     44  22  41 S7        30.04S
MONUMENT HILL  CLEAR     43  25  49 S8        30.10S
TRINIDAD       CLEAR     53  34  48 S5        30.09S
$$

COZ042>045-048>051-090-091-280200-
...NORTHEAST COLORADO...

CITY           SKY/WX    TMP DP  RH WIND       PRES   REMARKS
GREELEY ARPT   CLEAR     46  30  53 NW3       29.98F
AKRON          MOCLDY    56  28  34 SE8       29.98F
BURLINGTON     MOCLDY    51  32  48 S13       29.99F
WRAY           MOCLDY    62  28  27 E5        29.96S
STERLING       MOCLDY    52  36  54 CALM      29.95S
HOLYOKE        MOCLDY    54  30  40 E3        29.96S
FORT MORGAN    MOCLDY    52  27  38 NE8       29.99S
$$

COZ086-089-092>099-280200-
...SOUTHEAST COLORADO...

CITY           SKY/WX    TMP DP  RH WIND       PRES   REMARKS
PUEBLO         CLEAR     53  22  29 E6        29.99F
LA JUNTA       CLEAR     57  34  41 S5        29.99F
LAMAR          PTCLDY    50  33  52 SW7       29.96F
SPRINGFIELD      N/A     51  32  48 S9        30.04
$$



USA.gov is the U.S. government's official web portal to all federal, state and local government web resources and services.